#timestamp,LO_Frequency,Hit 
1504778415.5,286046988.7,P
1504778435.3,286046995.4,N
1504778455.2,286046997.3,N
1504778475.9,286046997.2,N
1504778495.7,286047000.9,N
1504778515.6,286046999.2,N
1504778535.4,286046997.1,N
1504778555.2,286046997.0,N
1504778575.1,286047001.0,N
1504778576.0,286047001.0,N
1504778595.8,286047002.8,N
1504778615.6,286047003.3,N
1504778635.5,286047000.7,N
1504778655.3,286046999.7,N
1504778675.1,286047000.0,N
1504778695.9,286047001.7,N
1504778715.7,286047008.7,N
1504778735.5,286047006.4,N
1504778755.3,286047005.8,N
1504778775.2,286047007.0,N
1504778795.0,286047008.4,N
1504778795.9,286047008.4,N
1504778815.7,286047008.6,N
1504778835.6,286047005.6,N
1504778855.4,286047000.3,N
1504778875.2,286047001.9,N
1504778895.1,286047004.3,N
1504778896.0,286047004.3,N
1504778915.8,286046999.9,N
1504778935.6,286047003.8,N
1504778955.5,286047005.3,N
1504778975.3,286047005.5,N
1504778995.1,286047005.9,N
1504779015.9,286047003.7,N
1504779035.7,286047005.3,N
1504779055.5,286047001.7,N
1504779075.3,286047000.9,N
1504779095.2,286047001.0,N
1504779115.0,286047003.2,N
1504779115.9,286047003.2,N
1504779135.7,286047000.1,N
1504779155.6,286046998.3,N
1504779175.4,286046999.3,N
1504779195.2,286046999.0,N
1504779215.1,286046996.7,N
1504779216.0,286046996.7,N
1504779235.8,286046997.8,N
1504779255.6,286046996.9,N
1504779275.5,286046998.9,N
1504779295.3,286046993.6,N
1504779315.1,286047000.5,N
1504779335.9,286046998.8,N
1504779355.7,286046996.6,N
1504779375.5,286046995.5,N
1504779395.4,286046995.6,N
1504779415.2,286046998.4,N
1504779435.0,286047000.1,N
1504779435.9,286047000.1,N
1504779455.8,286046999.9,N
1504779475.6,286047003.1,N
1504779495.4,286047001.3,N
1504779515.3,286047000.4,N
1504779535.1,286047001.9,N
1504779536.0,286047001.9,N
1504779555.8,286046999.5,N
1504779575.7,286046999.6,N
1504779595.5,286046999.6,N
1504779615.3,286046997.8,N
1504779635.1,286046996.5,N
1504779655.9,286046998.2,N
1504779675.7,286046999.6,N
1504779695.5,286046995.1,N
1504779715.4,286047001.1,N
1504779735.2,286046999.5,N
1504779755.0,286047001.2,N
1504779755.9,286047001.2,N
1504779775.8,286047002.8,N
1504779795.6,286047002.0,N
1504779815.4,286046998.7,N
1504779835.3,286046998.6,N
1504779855.1,286046999.3,N
1504779856.0,286046999.3,N
1504779875.8,286046994.1,N
1504779895.7,286046993.5,N
1504779915.5,286046998.8,N
1504779935.3,286046998.3,N
1504779955.2,286047002.1,N
1504779975.9,286047004.2,N
1504779995.7,286047004.4,N
1504780015.6,286047001.0,N
1504780035.4,286047003.1,N
1504780055.2,286047003.1,N
1504780075.0,286047003.0,N
1504780076.0,286047003.0,N
1504780095.8,286046999.7,N
1504780115.6,286046998.0,N
1504780135.4,286046994.7,N
1504780155.3,286046999.5,N
1504780175.1,286046998.2,N
1504780195.8,286046998.1,N
1504780215.7,286046999.1,N
1504780235.5,286046998.2,N
1504780255.3,286046999.7,N
1504780275.2,286046997.1,N
1504780295.9,286046997.1,N
1504780315.7,286046999.2,N
1504780335.6,286046998.2,N
1504780355.4,286047002.5,N
1504780375.2,286047005.1,N
1504780395.1,286047007.6,N
1504780396.0,286047007.6,N
1504780415.8,286047003.7,N
1504780435.6,286047001.4,N
1504780455.5,286047000.2,N
1504780475.3,286047000.5,N
1504780495.1,286047000.6,N
1504780515.8,286047003.5,N
1504780535.7,286047005.0,N
1504780555.5,286047002.3,N
1504780575.3,286047004.3,N
1504780595.2,286046998.2,N
1504780615.9,286046998.7,N
1504780635.7,286047000.6,N
1504780655.6,286046998.1,N
1504780675.4,286047000.7,N
1504780695.2,286047003.0,N
1504780715.1,286047005.4,N
1504780716.0,286047005.4,N
1504780735.8,286047008.6,N
1504780755.6,286047006.5,N
1504780775.5,286047002.0,N
1504780795.3,286046998.1,N
1504780815.1,286046999.9,N
1504780835.8,286047002.0,N
1504780855.7,286047000.9,N
1504780875.5,286046996.8,N
1504780895.3,286046996.3,N
1504780915.2,286046997.6,N
1504780935.0,286046995.2,N
1504780935.9,286046995.2,N
1504780955.7,286046999.3,N
1504780975.6,286047002.4,N
1504780995.4,286047002.5,N
1504781015.2,286047001.4,N
1504781035.1,286047002.8,N
1504781036.0,286047002.8,N
1504781055.8,286047000.4,N
1504781075.6,286046998.6,N
1504781095.5,286046997.4,N
1504781115.3,286046997.8,N
1504781135.1,286046999.6,N
1504781155.9,286046998.3,N
1504781175.7,286046998.1,N
1504781195.5,286047004.3,N
1504781215.3,286047001.5,N
1504781235.2,286047004.2,N
1504781255.0,286047000.9,N
1504781255.9,286047000.9,N
1504781275.7,286047000.9,N
1504781295.6,286047000.9,N
1504781315.4,286047000.3,N
1504781335.2,286046998.5,N
1504781355.1,286046999.2,N
1504781356.0,286046999.2,N
1504781375.8,286046999.2,N
1504781395.6,286046998.5,N
1504781415.5,286047000.7,N
1504781435.3,286046998.2,N
1504781455.1,286046996.5,N
1504781475.9,286046998.3,N
1504781495.7,286047000.0,N
1504781515.5,286047003.9,N
1504781535.4,286047000.1,N
1504781555.2,286047003.9,N
1504781575.0,286047000.9,N
1504781575.9,286047000.9,N
1504781595.8,286047002.0,N
1504781615.6,286047004.8,N
1504781635.4,286047005.1,N
1504781655.3,286047007.8,P
1504781675.1,286047008.0,N
1504781676.0,286047008.0,N
1504781695.8,286047008.3,N
1504781715.7,286047007.8,N
1504781735.5,286047008.0,N
1504781755.3,286047010.5,P
1504781775.2,286046999.9,N
1504781795.9,286046997.3,N
1504781815.7,286046993.7,N
1504781835.6,286046994.7,N
1504781855.4,286046991.9,N
1504781875.2,286046993.9,N
1504781895.1,286046995.1,N
1504781896.0,286046995.1,N
1504781915.8,286046999.4,N
1504781935.6,286046997.9,N
1504781955.4,286046995.5,N
1504781975.3,286046997.1,N
1504781995.1,286046994.8,N
